Location: Izdebno
(52.6670°N, 16.2170°E)
Time: 07:40:09
(UTC+02:00)

Vanguard 1 - Pass Details

Date: 25 February 2024
Orbit: 653 x 3825 km, 34.2° (Epoch: 22 April)

Event Time Altitude Azimuth Distance (km) Brightness Sun altitude
Rises 18:07:35 0° 198° (SSW) 5,164 14.1 -7.1°
Reaches altitude 10° 18:11:31 10° 185° (S) 4,626 13.6 -7.7°
Maximum altitude 18:21:28 24° 138° (SE) 4,571 13.1 -9.2°
Enters shadow 18:34:05 12° 98° (E) 6,383 13.5 -11.1°
